Regional Weather Roundup
Issued by NWS Newport/Morehead, NC

Current Version | Previous Version | Text Only | Print | Product List | Glossary On
Versions: 1 2 3 4 5 6 7 8 9 10 11 12 13 14 15 16 17 18 19 20 21 22 23 24 25 26 27 28 29
000
ASUS42 KMHX 200010
RWRMHX
WEATHER ROUNDUP FOR EASTERN NORTH CAROLINA
NATIONAL WEATHER SERVICE NEWPORT/MOREHEAD CITY NC
700 PM EST FRI JAN 19 2018

NOTE: "FAIR" INDICATES FEW OR NO CLOUDS BELOW 12,000 FEET
WITH NO SIGNIFICANT WEATHER AND/OR OBSTRUCTIONS TO VISIBILITY

NCZ015>017-031-032-045>047-102-103-200100-
NORTH COAST

CITY           SKY/WX    TMP DP  RH WIND       PRES   REMARKS
EDENTON        FAIR      50  21  32 SW8       30.12S
ELIZABETH CITY FAIR      44  31  60 SW9       30.10S
KITTY HAWK     FAIR      42  20  41 CALM      30.10S
MANTEO         FAIR      40  28  63 CALM      30.13R

$$

NCZ045>047-081-094-103-104-200100-
CENTRAL COAST

CITY           SKY/WX    TMP DP  RH WIND       PRES   REMARKS
FRISCO         FAIR      50  42  74 SW9       30.14R

$$

NCZ095-097-098-100-101-200100-
SOUTHERN COAST

CITY           SKY/WX    TMP DP  RH WIND       PRES   REMARKS
BEAUFORT       FAIR      45  41  86 SW7       30.17R
CEDAR ISLAND   NOT AVBL
JACKSONVILLE   FAIR      44  33  65 SW3       30.16R
PINEY ISLAND   NOT AVBL
WILMINGTON     FAIR      44  28  53 SW7       30.18R


$$

NCZ011>013-027>030-043-044-078>080-089-090>093-098-200100-
COASTAL PLAIN

CITY           SKY/WX    TMP DP  RH WIND       PRES   REMARKS
AHOSKIE        FAIR      34  22  62 CALM      30.13R
CLINTON        FAIR      42  29  58 CALM      30.17R
ELIZABETHTOWN  NOT AVBL
GOLDSBORO      FAIR      41  25  52 CALM      30.14R
GREENVILLE     FAIR      37  23  56 SW3       30.16R
HAVELOCK       NOT AVBL
KENANSVILLE    FAIR      37  28  70 CALM      30.17R
KINSTON        FAIR      41  25  52 CALM      30.16R
NEW BERN       FAIR      43  30  60 S7        30.16R
RICHLANDS      FAIR      39  31  72 SW3       30.17R
ROCKY MOUNT    NOT AVBL
WASHINGTON     FAIR      41  23  49 CALM      30.14S
WHITEVILLE     FAIR      42  26  52 CALM      30.17R

$$

AMZ130-135-150-152-154-156-158-170-250-252-270-ANZ085-086-088-633-658-670-200100-
MARINE OBSERVATIONS

STATION/POSITION TIME  TEMP    WIND        PRES    WAVE   SWELL
                       AIR SEA DIR/SP/G            HT/PER HT/PER
                 (UTC) (F)     (DEG/KT/KT) (MB)    (FT/S) (FT/S)
CHESAPEAKE LIGHT NOT AVBL
64 E VA BEACH    NOT AVBL
DUCK             NOT AVBL
2 E DUCK         NOT AVBL
OREGON INLET     NOT AVBL
13E OREGON INLT  NOT AVBL
HATTERAS CG      NOT AVBL
DIAMOND BUOY     NOT AVBL
CAPE LOOKOUT     NOT AVBL
BEAUFORT LAB     NOT AVBL
30 SE NEW RVR IN NOT AVBL
30 SE NEW RVR IN NOT AVBL
27 SE WRIGHTSVLE NOT AVBL
5 SE WRIGHTSVLE  NOT AVBL
225 S CAPE HAT   NOT AVBL
41 SE CHARLESTON NOT AVBL

$$




USA.gov is the U.S. government's official web portal to all federal, state and local government web resources and services.